[[{"header":{"parameterUnit":"m.s-1","parameterCategory":1,"la1":30.2991,"la2":30.254,"lo1":-89.0895,"lo2":-89.0444,"dy":0.0017,"dx":0.0017,"nx":28,"ny":28,"refTime":"2024-07-25T03:00:00:Z","depth":0,"parameterNumber":2,"parameterNumberName":"U-component_of_WINDS"},"data":[0,0,0,0,0,0,0,0,0,0,0,0,0,0,0,0,0,0,0,0,0,0,0,0,0,0,0,0,0,0,0,0,0,0,0,0,0,0,0,0,0,0,0,0,0,0,0,0,0,0,0,0,0,0,0,0,0,0,-3.2449,-3.2449,0,-3.2489,-3.249,-3.249,-3.2404,-3.2401,-3.2399,-3.2396,-3.2433,-3.2436,-3.244,0,0,0,0,0,0,0,0,0,0,0,0,0,-3.2293,-3.2297,-3.2449,-3.2449,-3.245,-3.2489,-3.249,-3.249,-3.2405,-3.2401,-3.2398,-3.2395,-3.2432,-3.2436,-3.244,0,0,0,0,0,0,0,0,0,0,0,0,0,-3.235,-3.2298,-3.2448,-3.2412,-3.2409,-3.2489,-3.249,-3.249,-3.2405,-3.2401,-3.2397,-3.2393,-3.243,-3.2435,-3.2441,-3.2557,0,0,-3.2457,-3.2459,0,0,0,0,0,0,0,0,-3.2347,-3.2356,-3.2417,-3.2415,-3.2411,-3.2437,-3.2448,-3.2512,-3.2406,-3.2407,-3.2396,-3.2391,-3.2437,-3.2442,-3.2458,-3.2558,-3.256,-3.2457,-3.2461,-3.2463,-3.2464,0,0,0,0,0,0,0,-3.2343,-3.2353,-3.2464,-3.2418,-3.2415,-3.2392,-3.2396,-3.246,-3.2445,-3.2406,-3.24,-3.2406,-3.2435,-3.2453,-3.2459,-3.256,-3.2457,-3.2462,-3.2465,-3.2467,-3.2758,-3.2762,0,0,0,0,0,0,-3.2344,-3.2351,-3.2463,-3.2466,-3.2368,-3.2398,-3.2402,-3.2433,-3.2444,-3.2441,-3.241,-3.2402,-3.2446,-3.2452,-3.246,-3.2596,-3.2463,-3.2468,-3.2471,-3.2753,-3.2759,-3.2763,0,0,0,0,0,0,-3.2341,-3.2355,-3.2461,-3.2407,-3.2418,-3.2405,-3.2441,-3.2436,-3.2454,-3.2447,-3.2443,-3.2432,-3.2443,-3.2452,-3.2533,-3.2596,-3.247,-3.2475,-3.2748,-3.2755,-3.2761,-3.2869,0,0,0,0,0,0,-3.2337,-3.2355,-3.2399,-3.2408,-3.2422,-3.2536,-3.2445,-3.244,-3.2464,-3.2455,-3.2466,-3.2464,-3.2441,-3.2526,-3.2539,-3.2601,-3.2479,-3.2742,-3.2751,-3.2759,-3.286,-3.2879,-3.2895,0,0,0,0,0,-3.2332,-3.2427,-3.2402,-3.2416,-3.2478,-3.254,-3.2547,-3.252,-3.247,-3.2514,-3.2509,-3.2463,-3.2588,-3.2535,-3.2549,-3.2613,-3.2738,-3.2748,-3.2758,-3.2852,-3.2875,-3.2895,0,0,0,0,0,0,-3.2423,-3.2427,-3.24,-3.2501,-3.2521,-3.2525,-3.258,-3.2545,-3.2579,-3.2568,-3.2532,-3.2535,-3.2623,-3.2626,-3.2568,-3.2726,-3.2654,-3.2667,-3.2721,-3.2743,-3.276,-3.2756,-3.2484,0,0,0,0,0,-3.2456,-3.2507,-3.2508,-3.2597,-3.2608,-3.2593,-3.2619,-3.2597,-3.2615,-3.2623,-3.2624,-3.2642,-3.2685,-3.2714,-3.2753,-3.2861,-3.2861,-3.2912,-3.293,-3.2944,-3.2955,-3.3012,-3.3034,-3.2797,-3.2797,-3.2797,0,0,-3.2522,-3.253,-3.2565,-3.2615,-3.2628,-3.2681,-3.26,-3.266,-3.2698,-3.2631,-3.2708,-3.271,-3.2729,-3.2824,-3.2865,-3.2829,-3.3022,-3.2957,-3.2969,-3.2972,-3.3025,-3.3047,-3.3067,-3.2804,-3.2802,-3.2801,0,0,-3.2669,-3.2682,-3.2758,-3.2773,-3.2795,-3.2784,-3.2803,-3.2813,-3.2812,-3.289,-3.2841,-3.2886,-3.2961,-3.2976,-3.2993,-3.315,-3.3109,-3.3164,-3.3254,-3.331,-3.3329,-3.3345,-3.34,-3.342,-3.3175,-3.3176,-3.3176,0,-3.2748,-3.2828,-3.28,-3.2864,-3.2887,-3.2832,-3.2907,-3.2923,-3.2956,-3.2973,-3.2932,-3.3026,-3.3034,-3.3132,-3.3171,-3.3187,-3.3206,-3.3161,-3.3329,-3.3345,-3.336,-3.3411,-3.3432,-3.3182,-3.3181,-3.3181,-3.318,0,-3.2923,-3.298,-3.3038,-3.3073,-3.3104,-3.3173,-3.3155,-3.3188,-3.3165,-3.3158,-3.3238,-3.3247,-3.3287,-3.3309,-3.3285,-3.3403,-3.338,-3.3335,-3.3261,-3.3389,-3.3437,-3.3457,-3.3191,-3.3189,-3.3187,-3.3186,0,0,-3.3126,-3.3148,-3.317,-3.3186,-3.3207,-3.3249,-3.3316,-3.3357,-3.3386,-3.3412,-3.3466,-3.3532,-3.3491,-3.3511,-3.3489,-3.3538,-3.3661,-3.3487,-3.3486,-3.3518,-3.3791,-3.3824,-3.3847,-3.3635,-3.3638,-3.3641,-3.3789,0,-3.3272,-3.3389,-3.3367,-3.348,-3.3531,-3.3481,-3.3539,-3.3558,-3.3554,-3.3596,-3.3591,-3.3639,-3.3581,-3.3593,-3.364,-3.3636,-3.3715,-3.3625,-3.3683,-3.3685,-3.3678,-3.3872,-3.3907,-3.4045,-3.3808,-3.3811,-3.3813,0,-3.3456,-3.3491,-3.361,-3.3624,-3.3645,-3.3698,-3.3734,-3.3776,-3.3796,-3.379,-3.3814,-3.3783,-3.3849,-3.3776,-3.3865,-3.3805,-3.3828,-3.383,-3.3834,-3.3837,-3.3756,-3.3879,-3.4089,-3.4109,-3.3843,-3.384,-3.3838,0,-3.3591,-3.3667,-3.3749,-3.3764,-3.3783,-3.3821,-3.3831,-3.3847,-3.3874,-3.3906,-3.3922,-3.3961,-3.3982,-3.4012,-3.3992,-3.3941,-3.4084,-3.401,-3.4079,-3.408,-3.4109,-3.4107,-3.4325,-3.4128,-3.4128,-3.4127,-3.4127,0,-3.3754,-3.3828,-3.381,-3.3859,-3.3941,-3.3916,-3.3997,-3.4,-3.4016,-3.4065,-3.4023,-3.4069,-3.4041,-3.4085,-3.4069,-3.4145,-3.4155,-3.4151,-3.4145,-3.4153,-3.4154,-3.4166,-3.4155,-3.4133,-3.4131,-3.413,-3.4129,0,-3.3917,-3.3907,-3.3992,-3.4005,-3.401,-3.407,-3.4079,-3.4125,-3.412,-3.4182,-3.4195,-3.4186,-3.4236,-3.422,-3.4272,-3.4262,-3.4358,-3.4341,-3.4351,-3.4346,-3.4416,-3.4409,-3.4647,-3.4676,-3.4463,-3.4465,-3.4466,0,-3.402,-3.4077,-3.4097,-3.4127,-3.4141,-3.419,-3.4218,-3.4196,-3.4227,-3.4255,-3.4298,-3.4344,-3.438,-3.4461,-3.4458,-3.4498,-3.4481,-3.4562,-3.4486,-3.4493,-3.448,-3.4476,-3.4481,-3.4576,-3.4578,-3.458,-3.4582,0,-3.4205,-3.4198,-3.4241,-3.4283,-3.4318,-3.435,-3.4377,-3.4404,-3.4384,-3.442,-3.4472,-3.45,-3.4555,-3.4601,-3.4638,-3.4646,-3.461,-3.4606,-3.4624,-3.4631,-3.4635,-3.4632,-3.439,-3.46,-3.4598,-3.4597,-3.4596,-3.4595,-3.4339,-3.4387,-3.441,-3.4459,-3.4478,-3.4506,-3.455,-3.4552,-3.4595,-3.4639,-3.4624,-3.4682,-3.4702,-3.4748,-3.4762,-3.4806,-3.4775,-3.4801,-3.4807,-3.4813,-3.4822,-3.463,-3.4813,-3.4812,-3.4812,-3.4811,-3.4811,0,-3.452,-3.4533,-3.4579,-3.462,-3.4659,-3.4626,-3.4655,-3.4689,-3.4742,-3.4765,-3.4802,-3.4861,-3.4907,-3.4909,-3.4951,-3.4986,-3.4971,-3.4998,-3.4993,-3.4996,-3.4848,-3.4828,-3.5009,-3.5009,-3.5009,-3.5009,-3.5009,-3.5009,-3.4618,-3.4698,-3.4695,-3.4784,-3.4795,-3.4854,-3.4874,-3.4898,-3.4916,-3.4985,-3.5024,-3.5026,-3.504,-3.5083,-3.5123,-3.5123,-3.5139,-3.5172,-3.5165,-3.5026,-3.5006,-3.4987,-3.4968,-3.5176,-3.5176,-3.5308,-3.531,-3.531]},{"header":{"parameterUnit":"m.s-1","parameterCategory":1,"la1":30.2991,"la2":30.254,"lo1":-89.0895,"lo2":-89.0444,"dy":0.0017,"dx":0.0017,"nx":28,"ny":28,"refTime":"2024-07-25T03:00:00:Z","depth":0,"parameterNumber":3,"parameterNumberName":"V-component_of_WINDS"},"data":[0,0,0,0,0,0,0,0,0,0,0,0,0,0,0,0,0,0,0,0,0,0,0,0,0,0,0,0,0,0,0,0,0,0,0,0,0,0,0,0,0,0,0,0,0,0,0,0,0,0,0,0,0,0,0,0,0,0,0.4286,0.4285,0,0.4201,0.42,0.42,0.4169,0.4169,0.417,0.417,0.4077,0.4074,0.4071,0,0,0,0,0,0,0,0,0,0,0,0,0,0.4415,0.4412,0.4286,0.4285,0.4284,0.4202,0.42,0.4199,0.4169,0.4169,0.417,0.417,0.4077,0.4074,0.4071,0,0,0,0,0,0,0,0,0,0,0,0,0,0.4347,0.4412,0.4286,0.4259,0.4256,0.4202,0.42,0.4199,0.4169,0.4169,0.417,0.417,0.4079,0.4075,0.407,0.4035,0,0,0.4058,0.4056,0,0,0,0,0,0,0,0,0.4351,0.4342,0.4264,0.4261,0.4257,0.4196,0.4212,0.4144,0.4169,0.4202,0.417,0.4171,0.4116,0.4108,0.4091,0.4031,0.4027,0.4057,0.4055,0.4053,0.4052,0,0,0,0,0,0,0,0.4356,0.4346,0.4252,0.4263,0.4258,0.4249,0.424,0.4199,0.4157,0.4199,0.4196,0.4187,0.4114,0.4095,0.4089,0.4026,0.4057,0.4054,0.4051,0.405,0.3934,0.3933,0,0,0,0,0,0,0.4366,0.435,0.4255,0.425,0.4306,0.4246,0.4236,0.4215,0.4157,0.4149,0.4187,0.4186,0.4102,0.4094,0.4086,0.4042,0.4053,0.4049,0.4047,0.3934,0.3934,0.3933,0,0,0,0,0,0,0.4369,0.4358,0.4258,0.4299,0.4286,0.4244,0.422,0.4213,0.4195,0.4148,0.414,0.4176,0.4102,0.4091,0.4049,0.4038,0.4047,0.4043,0.3935,0.3934,0.3933,0.3953,0,0,0,0,0,0,0.4373,0.4359,0.4346,0.4299,0.4284,0.4225,0.422,0.4211,0.4189,0.4187,0.4136,0.4128,0.4102,0.4055,0.4045,0.4032,0.404,0.3936,0.3935,0.3934,0.3953,0.3953,0.3953,0,0,0,0,0,0.4377,0.4353,0.4346,0.4334,0.4267,0.4224,0.4215,0.4187,0.4188,0.4174,0.4145,0.413,0.4041,0.4051,0.4039,0.4025,0.3936,0.3935,0.3934,0.3953,0.3953,0.3953,0,0,0,0,0,0,0.4396,0.4346,0.4338,0.4298,0.4266,0.4219,0.4201,0.4188,0.4153,0.4152,0.4117,0.4106,0.4067,0.4041,0.4054,0.3989,0.3988,0.3984,0.4007,0.4006,0.4006,0.4013,0.4037,0,0,0,0,0,0.4397,0.4368,0.4325,0.4294,0.4279,0.4243,0.4222,0.4205,0.4169,0.4154,0.4121,0.4086,0.405,0.4027,0.3991,0.395,0.3938,0.3935,0.3934,0.3935,0.3931,0.3909,0.3907,0.3929,0.3929,0.3929,0,0,0.4396,0.4365,0.4348,0.4297,0.427,0.4239,0.4231,0.4198,0.4175,0.4148,0.4107,0.4082,0.404,0.3999,0.3979,0.3976,0.3923,0.3933,0.3933,0.393,0.3907,0.3905,0.3904,0.3928,0.3928,0.3928,0,0,0.4378,0.4352,0.4324,0.4299,0.4259,0.4236,0.423,0.4185,0.4169,0.4127,0.4108,0.4078,0.4017,0.3988,0.3966,0.3941,0.3926,0.393,0.3929,0.3907,0.3906,0.3904,0.3895,0.3893,0.3927,0.3927,0.3927,0,0.4381,0.4336,0.4311,0.4281,0.4259,0.4237,0.4208,0.4183,0.4133,0.4118,0.4117,0.4042,0.4011,0.3964,0.3958,0.3941,0.3931,0.3935,0.3908,0.3906,0.3904,0.3896,0.3893,0.3928,0.3928,0.3928,0.3928,0,0.4342,0.4311,0.4293,0.425,0.4226,0.4196,0.4165,0.4143,0.4128,0.4105,0.4064,0.4027,0.3985,0.3972,0.3955,0.3922,0.3923,0.3916,0.3913,0.3904,0.3895,0.3891,0.3929,0.3929,0.3929,0.3928,0,0,0.4332,0.4277,0.4271,0.4252,0.4208,0.4183,0.4152,0.4114,0.4096,0.4063,0.4036,0.3986,0.3981,0.3955,0.3935,0.3916,0.39,0.3911,0.391,0.3911,0.3862,0.3868,0.3864,0.3891,0.389,0.3889,0.3866,0,0.4309,0.4257,0.4234,0.4191,0.4162,0.4142,0.4116,0.4085,0.4063,0.4034,0.4009,0.3975,0.3969,0.3954,0.3935,0.3906,0.389,0.3908,0.3864,0.3863,0.3875,0.386,0.3865,0.3845,0.3862,0.3862,0.3861,0,0.4275,0.4245,0.42,0.4162,0.4149,0.4126,0.409,0.4063,0.4028,0.4014,0.3987,0.3969,0.3935,0.3936,0.3889,0.3902,0.3883,0.3866,0.3865,0.3859,0.3861,0.3854,0.3837,0.3834,0.3856,0.3856,0.3856,0,0.4273,0.4221,0.4188,0.4172,0.4127,0.4111,0.4091,0.4057,0.4036,0.4004,0.399,0.3953,0.3933,0.3904,0.3876,0.388,0.3832,0.383,0.3818,0.3818,0.3807,0.3808,0.3788,0.3796,0.3796,0.3796,0.3796,0,0.4249,0.4223,0.4188,0.4167,0.4137,0.4111,0.4081,0.4059,0.4029,0.4003,0.3983,0.3958,0.3923,0.3894,0.3872,0.3837,0.3827,0.3814,0.3808,0.3815,0.3817,0.3802,0.3802,0.3795,0.3795,0.3795,0.3796,0,0.4242,0.4217,0.418,0.4141,0.4131,0.411,0.4076,0.4055,0.4034,0.4001,0.3992,0.3956,0.3921,0.3892,0.3844,0.3829,0.3793,0.3786,0.3806,0.3802,0.3792,0.3793,0.376,0.3754,0.3767,0.3767,0.3766,0,0.4228,0.4208,0.4168,0.4151,0.4132,0.4104,0.4084,0.4058,0.4037,0.3997,0.3981,0.3945,0.3915,0.386,0.3829,0.3793,0.3785,0.3776,0.3779,0.3788,0.3785,0.3787,0.3785,0.3775,0.3776,0.3776,0.3776,0,0.4207,0.4197,0.4169,0.4138,0.4116,0.4089,0.4061,0.4048,0.4016,0.3994,0.396,0.3937,0.3891,0.3855,0.3817,0.3794,0.3779,0.3775,0.377,0.3777,0.379,0.3783,0.3805,0.3776,0.3776,0.3776,0.3776,0.3776,0.4196,0.4177,0.4148,0.4118,0.4096,0.4072,0.4051,0.4028,0.4,0.3962,0.3948,0.3913,0.388,0.3827,0.3805,0.3776,0.3774,0.3766,0.3764,0.3763,0.3765,0.3796,0.3769,0.3769,0.3769,0.3769,0.3769,0,0.4174,0.4155,0.4128,0.4093,0.407,0.4061,0.4031,0.4012,0.3982,0.3954,0.3926,0.3887,0.3853,0.3821,0.3786,0.3769,0.3761,0.376,0.3761,0.3756,0.3769,0.3777,0.3767,0.3767,0.3767,0.3767,0.3767,0.3767,0.416,0.4129,0.4116,0.4073,0.4054,0.4022,0.4005,0.3983,0.396,0.3919,0.3892,0.3872,0.3842,0.3805,0.3773,0.3764,0.3752,0.3753,0.3742,0.3754,0.3755,0.3755,0.3763,0.375,0.375,0.3732,0.3732,0.3732]}]]